sat.trackr.live / text

‹ back to catalog

KOREASAT 7

NORAD 42691 · 2017-023A

PAYLOAD ACTIVE UNKNOWN

§ Identity

Operator
Country
SKOR
Launch date
2017-05-04
Launch site
FRGUI
Launch vehicle
Mass (kg)
RCS (m²)

Purposes: comms

External: N2YO · Heavens-Above · Gunter

§ Orbital elements

Epoch: 2026-05-25T00:52:21.122112Z

Period
1,436.09 min
Inclination
0.0199°
Eccentricity
0.0000749
Mean motion
1.00272295 rev/d
Perigee alt
35,783.3 km
Apogee alt
35,789.6 km
Semi-major
42,164.6 km
B*
0.0000e+0
RAAN
344.0125°
Arg perigee
77.7515°
Mean anomaly
309.8600°
Rev number
3,313

§ Raw data

KOREASAT 71 42691U 17023A   26145.03635558 -.00000364  00000+0  00000+0 0  99902 42691   0.0199 344.0125 0000749  77.7515 309.8600  1.00272295 33138

JSON: /api/v1/satellites/42691 · /tle

For live sub-satellite position, see the globe view (requires WebGL).

§ Visibility from observer

Set your observer location to see the next 7 days of passes ≥ 10°. The values pass through the URL so the page stays shareable.

No JS? Fill the form by hand. The geolocation button needs JavaScript.